Location: Sternwarte_Laufen
(47.9344°N, 12.9346°E)
Time: 04:35:46
(UTC+02:00)

ISS - Pass Details

Date: 20 May 2018
Orbit: 402 x 407 km, 51.6° (Epoch: 26 May)

Event Time Altitude Azimuth Distance (km) Brightness Sun altitude
Exits shadow 00:06:13 23° 65° (ENE) 918 -2.0 -20.9°
Drops below altitude 10° 00:07:34 10° 67° (ENE) 1,459 -0.9 -21.0°
Sets 00:09:39 0° 68° (ENE) 2,320 0.1 -21.0°
